Flagstaff, AZ

10:17 AM MST on June 28, 2017 (GMT -0700)
Flagstaff Pulliam

Weather History for KFLG - June, 2013

Change the Weather History Date:

Sunday, June 9, 2013

  Actual Average Record
Temperature  
Mean Temperature 70 °F 58 °F  
Max Temperature 90 °F 76 °F 90 °F (2013)
Min Temperature 49 °F 40 °F 24 °F (1950)
Degree Days  
Heating Degree Days 0 7  
Month to date heating degree days 18 76  
Since 1 July heating degree days 6679 6849  
Cooling Degree Days 5 0  
Month to date cooling degree days 8 0  
Year to date cooling degree days 8 0  
Growing Degree Days 20 (Base 50)    
Moisture  
Dew Point 24 °F    
Average Humidity 22    
Maximum Humidity 35    
Minimum Humidity 9    
Precipitation  
Precipitation 0.00 in 0.01 in 0.26 in (1983)
Month to date precipitation 0.00 0.10  
Year to date precipitation 5.23 8.21  
Snow  
Snow 0.00 in 0.00 in 0.00 in (2002)
Month to date snowfall 0.0 0.1  
Since 1 July snowfall 69.7 101.8  
Snow Depth 0.00 in    
Sea Level Pressure  
Sea Level Pressure 29.88 in    
Wind  
Wind Speed 8 mph (SW)    
Max Wind Speed 24 mph    
Max Gust Speed 33 mph    
Visibility 10 miles    
Events      
T = Trace of Precipitation, MM = Missing Value Source: NWS Daily Summary

Daily Weather History Graph

Daily Weather History Graph

Search for Another Location

Airport or City:

Trip Planner

Search our weather history database for the weather conditions in past years. The results will help you decide how hot, cold, wet, or windy it might be!

Date:

Astronomy

Jun. 09, 2013 Rise Set
Actual Time 5:11 AM MST 7:40 PM MST
Civil Twilight 4:42 AM MST 8:09 PM MST
Nautical Twilight 4:05 AM MST 8:46 PM MST
Astronomical Twilight 3:25 AM MST 9:26 PM MST
Moon 6:09 AM MST (6/9) 8:32 PM MST (6/9)
Length of Visible Light 15h 27m
Length of Day
14h 28m
New Moon, 1% of the Moon is Illuminated
Jun 9
New Moon
Jun 16
First Quarter
Jun 23
Full
Jun 29
Last Quarter
Jul 8
New

Hourly Weather History & Observations

Time (MST) Temp. Dew Point Humidity Pressure Visibility Wind Dir Wind Speed Gust Speed Precip Events Conditions
12:57 AM 53.1 °F 23.0 °F 31% 29.88 in 10.0 mi Calm Calm - N/A   Clear
1:57 AM 53.1 °F 23.0 °F 31% 29.88 in 10.0 mi Calm Calm - N/A   Clear
2:57 AM 53.1 °F 23.0 °F 31% 29.89 in 10.0 mi Calm Calm - N/A   Clear
3:57 AM 50.0 °F 23.0 °F 35% 29.89 in 10.0 mi SW 5.8 mph - N/A   Clear
4:57 AM 51.1 °F 24.1 °F 35% 29.90 in 10.0 mi SW 5.8 mph - N/A   Clear
5:57 AM 57.0 °F 27.0 °F 32% 29.89 in 10.0 mi SW 8.1 mph - N/A   Clear
6:57 AM 68.0 °F 28.9 °F 23% 29.87 in 10.0 mi SW 6.9 mph - N/A   Clear
7:57 AM 73.9 °F 28.9 °F 19% 29.87 in 10.0 mi SSW 5.8 mph - N/A   Clear
8:57 AM 78.1 °F 27.0 °F 15% 29.90 in 10.0 mi Variable 3.5 mph - N/A   Clear
9:57 AM 82.0 °F 24.1 °F 12% 29.91 in 10.0 mi Calm Calm - N/A   Clear
10:57 AM 84.9 °F 28.0 °F 13% 29.91 in 10.0 mi SW 9.2 mph - N/A   Clear
11:57 AM 86.0 °F 28.9 °F 13% 29.90 in 10.0 mi SW 12.7 mph - N/A   Clear
12:57 PM 88.0 °F 30.0 °F 12% 29.89 in 10.0 mi SSW 19.6 mph 26.5 mph N/A   Clear
1:57 PM 89.1 °F 26.1 °F 10% 29.87 in 10.0 mi SSW 16.1 mph 25.3 mph N/A   Clear
2:57 PM 90.0 °F 26.1 °F 10% 29.85 in 10.0 mi SW 12.7 mph 31.1 mph N/A   Clear
3:57 PM 89.1 °F 24.1 °F 9% 29.86 in 10.0 mi SW 19.6 mph 25.3 mph N/A   Clear
4:57 PM 87.1 °F 25.0 °F 10% 29.85 in 10.0 mi SSW 19.6 mph 28.8 mph N/A   Clear
5:57 PM 84.0 °F 24.1 °F 11% 29.84 in 10.0 mi SSW 19.6 mph 27.6 mph N/A   Clear
6:57 PM 80.1 °F 19.0 °F 10% 29.83 in 10.0 mi SSW 16.1 mph - N/A   Clear
7:57 PM 75.9 °F 19.0 °F 12% 29.84 in 10.0 mi WSW 9.2 mph - N/A   Clear
8:57 PM 72.0 °F 19.0 °F 13% 29.86 in 10.0 mi WSW 4.6 mph - N/A   Clear
9:57 PM 61.0 °F 21.0 °F 21% 29.89 in 10.0 mi Calm Calm - N/A   Clear
10:57 PM 60.1 °F 19.9 °F 21% 29.88 in 10.0 mi Calm Calm - N/A   Clear
11:57 PM 57.0 °F 19.9 °F 24% 29.88 in 10.0 mi Calm Calm - N/A   Clear